Regional Weather Roundup
Issued by NWS Albany, NY

Home | Current Version | Previous Version | Text Only | Print | Product List | Glossary On
Versions: 1 2 3 4 5 6 7 8 9 10 11 12 13 14 15 16 17 18 19 20 21 22 23 24 25 26 27 28 29 30 31 32 33 34 35 36 37 38 39 40 41 42 43 44 45 46 47 48 49 50
000
ASUS41 KALY 131510
RWRALY

NEW YORK STATE HOURLY WEATHER ROUNDUP
NATIONAL WEATHER SERVICE ALBANY NY
1000 AM EST WED DEC 13 2017

NOTE: "FAIR" INDICATES FEW OR NO CLOUDS BELOW 12,000 FEET WITH NO
SIGNIFICANT WEATHER AND/OR NO OBSTRUCTIONS TO VISIBILITY.

NYZ032-033-038>043-046>054-057>066-NYZ062>081-082-084-131600-
EAST


CITY           SKY/WX    TMP DP  RH WIND       PRES   REMARKS
ALBANY         PTSUNNY   18   5  57 W22G33    29.45R WCI   1
GLENS FALLS    CLOUDY    17   6  62 W9        29.39R WCI   6
POUGHKEEPSIE   CLOUDY    20   4  50 W10G23    29.51R WCI   9
NEWBURGH       MOSUNNY   19   7  58 W20G32    29.51R WCI   4
MONTGOMERY     CLOUDY    20   5  52 W21G30    29.51R WCI   4
WHITE PLAINS   PTSUNNY   19   9  65 NW12      29.50R WCI   7
ISLIP          PTSUNNY   23   4  44 W25G37    29.51S WCI   7
NEW YORK CITY  PTSUNNY   25   8  48 W25G38    29.56S WCI   9
CENTRAL PARK   PTSUNNY   23   7  50 W15G29    29.58R WCI  10
$$

NYZ005>009-017-018-044>046-055-056-131600-
CENTRAL


CITY           SKY/WX    TMP DP  RH WIND       PRES   REMARKS
FULTON         SNOW      15  11  83 NW18      29.57R VSB 1/2 WCI  -2
SYRACUSE       SNOW      16  14  92 W13G22    29.56R VSB 1/2 WCI   2
ROME           LGT SNOW  12   7  80 NW14      29.53R WCI  -3
ELMIRA         PTSUNNY   18   5  57 W21G31    29.61R WCI   1
BINGHAMTON     SNOW      11   7  84 W17G36    29.49R VSB 1/2 WCI  -6
$$

NYZ026>034-041>043-087-131600-
NORTH


CITY           SKY/WX    TMP DP  RH WIND       PRES   REMARKS
WATERTOWN      MOSUNNY    9   1  70 NW14      29.56R WCI  -7
FORT DRUM      NOT AVBL
OGDENSBURG     CLOUDY    10   3  74 W12G20    29.50R WCI  -5
MASSENA        PTSUNNY    9   2  73 W22G29    29.48R WCI -11
SARANAC LAKE   CLOUDY     4  -1  80 W8G22     29.29R HAZE    WCI  -9
PLATTSBURGH    CLOUDY    14   0  53 W13G25    29.36R WCI   0
$$

NYZ001>004-010>016-019>021-085-131600-
WEST


CITY           SKY/WX    TMP DP  RH WIND       PRES   REMARKS
NIAGARA FALLS  MOSUNNY   16   6  65 W13       29.72R WCI   2
BUFFALO        MOSUNNY   14   6  70 W13       29.72R WCI   0
DUNKIRK        CLOUDY    19  11  70 W13G23    29.75R WCI   6
JAMESTOWN      SNOW      15  11  83 NW8       29.67R VSB 1/2 WCI   4
WELLSVILLE     MIX PCPN  15   5  64 NW21G37   29.59R WCI  -2
ROCHESTER      LGT SNOW  17  11  77 NW16G25   29.65R BLWGSNOWWCI   2
PENN YAN       MIX PCPN  15   4  61 W17G31    29.59R WCI  -1
$$

             KEY
       WCI = WIND CHILL INDEX
       VSB = VISIBILITY
       HX  = HEAT INDEX
$$



USA.gov is the U.S. government's official web portal to all federal, state and local government web resources and services.